Location: Unspecified
(0.0000°N, 0.0000°E)
Time: 01:24:01
(UTC+00:00)

Vanguard 2 - Pass Details

Date: 12 December 2017
Orbit: 553 x 2939 km, 32.9° (Epoch: 21 July)

Event Time Altitude Azimuth Distance (km) Brightness Sun altitude
Rises 14:31:46 0° 268° (W) 5,522 12.5 45.2°
Reaches altitude 10° 14:37:49 10° 286° (WNW) 3,957 11.7 44.0°
Maximum altitude 14:43:13 16° 320° (NW) 2,975 10.8 42.8°
Drops below altitude 10° 14:47:28 10° 355° (N) 2,953 10.4 41.9°
Sets 14:51:00 0° 18° (NNE) 3,537 10.6 41.2°
